This is the latest recevied weather packets stored in our database for station/object N5JXS. If no packets are shown the sender has not sent any weather packets the latest 10 day(s).
| Time | Temp. | Humidity | Pressure | Rain* | Wind** | Luminosity | Snow |
|---|---|---|---|---|---|---|---|
| 1777819542 | 11.67° C | 33% | 1023.1 hPa | 0 mm | - | 132 W/m² | - |
| 1777819240 | 11.67° C | 35% | 1023.4 hPa | 0 mm | - | 127 W/m² | - |
| 1777818937 | 11.67° C | 34% | 1023.1 hPa | 0 mm | - | 123 W/m² | - |
| 1777818633 | 11.11° C | 35% | 1023.1 hPa | 0 mm | - | 118 W/m² | - |
| 1777818331 | 11.11° C | 36% | 1023 hPa | 0 mm | - | 116 W/m² | - |
| 1777818026 | 10.56° C | 36% | 1023.1 hPa | 0 mm | - | 110 W/m² | - |
| 1777817724 | 10.56° C | 36% | 1023.2 hPa | 0 mm | - | 105 W/m² | - |
| 1777817421 | 10.56° C | 37% | 1023 hPa | 0 mm | - | 100 W/m² | - |
| 1777817117 | 10° C | 37% | 1023.1 hPa | 0 mm | - | 95 W/m² | - |
| 1777816814 | 9.44° C | 39% | 1023.1 hPa | 0 mm | - | 86 W/m² | - |
| 1777816512 | 8.89° C | 44% | 1023.1 hPa | 0 mm | - | 82 W/m² | - |
| 1777816209 | 8.89° C | 43% | 1023 hPa | 0 mm | - | 77 W/m² | - |
| 1777815906 | 8.89° C | 42% | 1023 hPa | 0 mm | - | 72 W/m² | - |
| 1777815603 | 8.33° C | 42% | 1023 hPa | 0 mm | - | 66 W/m² | - |
| 1777815301 | 8.33° C | 42% | 1023 hPa | 0 mm | - | 61 W/m² | - |
| 1777814997 | 7.78° C | 43% | 1022.6 hPa | 0 mm | - | 56 W/m² | - |
| 1777814694 | 7.78° C | 44% | 1023 hPa | 0 mm | - | 50 W/m² | - |
| 1777814390 | 7.78° C | 46% | 1022.7 hPa | 0 mm | - | 47 W/m² | - |
| 1777814087 | 7.78° C | 43% | 1022.9 hPa | 0 mm | - | 43 W/m² | - |
| 1777813784 | 7.78° C | 42% | 1022.9 hPa | 0 mm | - | 40 W/m² | - |
| 1777813482 | 7.22° C | 43% | 1022.9 hPa | 0 mm | - | 36 W/m² | - |
| 1777813179 | 7.22° C | 45% | 1023 hPa | 0 mm | - | 35 W/m² | - |
| 1777812877 | 6.67° C | 45% | 1022.6 hPa | 0 mm | - | 31 W/m² | - |
| 1777812573 | 6.67° C | 45% | 1022.7 hPa | 0 mm | - | 27 W/m² | - |
| 1777812271 | 6.67° C | 44% | 1022.6 hPa | 0 mm | - | 24 W/m² | - |
* Rain latest hour (hover to see other rain measurements)
** Current wind speed in m/s (hover to see current wind gust speed)